Starlink 32398

operational
NORAD ID: 61624 Int'l Des: 2024-191 Owner: SPXS Country: US Constellation: starlink
LEOCIRCULAR

Starlink 32398について

説明を読み込み中...

リアルタイム位置

3D地球を読み込み中...

次回通過

高度履歴

Altitude vs Time

uPlot chart will show altitude changes over time

軌道要素

1 61624U 24191D 25351.74451438 -.00000216 00000-0 16635-5 0 9994
2 61624 43.0041 257.3203 0001490 277.0179 83.0503 15.27571588 65001
Epoch: Dec 17, 2025 • Age: 12 hours

現在のステータス

高度 489.0 km
速度 7.62 km/s
衛星直下点 -26.69°S, 41.21°E
打ち上げ日 Oct 23, 2024
運用期間 1.1 years
タイプ internet

技術仕様

分類 Payload
質量 730.00 kg
乾燥質量 700.00 kg
総質量 730.00 kg
長さ 0.30 m
直径 4.10 m
スパン 29.00 m
形状 Box + pan
製造者 SPXS
バスタイプ Starlink V2M
フェーズステータス In Orbit
所有者/国 SPXS/US

大規模コンステレーション

Loading constellations...